Location: Camerons Lookout
(40.9833°S, 175.9333°E)
Time: 18:00:08
(UTC+00:00)

Landsat 5 - Pass Details

Date: 14 January 2026
Orbit: 506 x 604 km, 98.1° (Epoch: 18 February)

Event Time Altitude Azimuth Distance (km) Brightness Sun altitude
Exits shadow 11:00:19 43° 141° (SE) 759 4.1 -24.7°
Drops below altitude 10° 11:03:20 10° 181° (S) 1,779 6.8 -24.9°
Sets 11:05:29 0° 187° (S) 2,667 8.1 -25.1°
